Other Surface Observations
Issued by NWS Tucson, AZ

Home | Current Version | Previous Version | Text Only | Print | Product List | Glossary On
Versions: 1 2 3 4 5 6 7 8 9 10 11 12 13 14 15 16 17 18 19 20 21 22 23 24 25 26 27 28 29 30 31 32 33 34 35 36 37 38 39 40 41 42 43 44 45 46 47 48 49 50
000
SXUS55 KTWC 302115
OSOTWC

WEATHER ROUNDUP FOR SOUTHEAST ARIZONA
NATIONAL WEATHER SERVICE TUCSON AZ
215 PM MST FRI JAN 30 2015

AZZ504>506-514-302215-
LOCATION       SKY/WX    TMP DP  RH WIND       PRES   REMARKS
TUCSON         CLOUDY    59  54  83 SE12      29.87F
DAVIS-MONTHAN  CLOUDY    57  56  95 E9        29.85F
CHILDRENS PARK N/A       57  54  91 SE9               PIMA CO DEQ
ALVERNON/22ND  N/A      N/A N/A N/A N/A               PIMA CO DEQ
CHERRY/GLENN   N/A      N/A N/A N/A N/A               PIMA CO DEQ
TANGERINE      N/A       59 N/A N/A S9                PIMA CO DEQ
CONTL RANCH    N/A       60  54  81 SE9               PIMA CO DEQ
GRANT/1ST      N/A       57  55  92 SW1               PIMA CO DEQ
CRAYCROFT/22ND N/A      N/A N/A N/A N/A               PIMA CO DEQ
GOLFLINKS/KOLB N/A       56  55  95 E5                PIMA CO DEQ
AJO/12TH       N/A       57  54  89 SE12              PIMA CO DEQ
SAGUARO EAST   N/A      N/A N/A N/A N/A               PIMA CO DEQ
FAIRGROUNDS    N/A       53 N/A N/A SE11              PIMA CO DEQ
SAGUARO        N/A       56  54  94 N2                *SABINO CYN
SAN CARLOS     N/A       49  46  88 SE10G17           *SAN CARLOS
GREEN VALLEY   N/A       57  55  94 SE1               PIMA CO DEQ
HORSE CAMP CYN N/A       45  43  93 E24G32            *ARAVAIPA CYN
RINCON MTNS    N/A       40  40  100 S3G13            *NR MANNING CAMP
$$

AZZ509>511-302215-
LOCATION       SKY/WX    TMP DP  RH WIND       PRES   REMARKS
SAFFORD        LGT RAIN  48  45  89 SE6       29.96F
STRAY HORSE    N/A       33  32  96 E3                *
TRAIL CABIN    N/A       38  38  99 E10G19            *N OF GRANVILLE
BLACK HILLS    N/A       47  45  92 SE18G26           *N OF FT THOMAS
DRY LAKE       N/A       35  35  100 SE11G21          *NATANES MTNS
NOON CREEK     N/A       41  38  90 E5G19             *PINALENO MTNS
COLUMBINE      N/A       34  34  100 S9G19            *PINALENO MTNS
GUTHRIE        N/A       36  36  100 E11G21           *SW OF GUTHRIE
$$

AZZ502-503-513-302215-
LOCATION       SKY/WX    TMP DP  RH WIND       PRES   REMARKS
NOGALES        CLOUDY    57  53  86 SE9       29.89S
SELLS          N/A       56  56  100 W8G13            *
SASABE         N/A       55  52  91 CALM              *ALTAR VLY
HOPKINS        N/A       44  44  100 W10G21           *SANTA RITA MTNS
CARR CYN       N/A       50  47  89 SE4G10            *W OF HEREFORD
$$

AZZ507-508-512-302215-
LOCATION       SKY/WX    TMP DP  RH WIND       PRES   REMARKS
SIERRA VISTA   LGT RAIN  52  48  87 SE13      29.91F
DOUGLAS        LGT RAIN  51  47  86 SE16      29.94F
EMPIRE MTNS    N/A       52  51  96 S5                *LAS CIENEGAS NCA
MULESHOE RANCH N/A       49  45  86 SE8G17            *PRESERVE
HEADQUARTERS   N/A       47  44  89 NE10G17           *CHIRICAHUA MTNS
$$

.............................NOTES.............................
THIS IS AN AUTOMATED COLLECTIVE WITH MINIMAL QUALITY CONTROL.
PIMA CO DEQ SITES HAVE NONSTANDARD WIND SENSOR HEIGHTS.
PIMA CO DEQ SITES DO NOT REPORT WIND GUSTS.
* INDICATES WIND SENSORS LOCATED AT 20 FEET INSTEAD OF 33 FEET.
..............................KEY..............................
SKY/WX - SKY CONDITION/WEATHER
TMP    - TEMPERATURE IN FAHRENHEIT
DP     - DEWPOINT IN FAHRENHEIT
RH     - RELATIVE HUMIDITY IN PERCENT
WIND   - DIRECTION AND SPEED IN MILES PER HOUR (MPH)
VRB    - VARIABLE WIND DIRECTION
PRES   - MEAN SEA LEVEL PRESSURE IN INCHES OF MERCURY
         F - FALLING PRESSURE   R - RISING PRESSURE
         S - STEADY PRESSURE
VSB    - VISIBILITY IN MILES
HX     - HEAT INDEX IN FAHRENHEIT
WCI    - WIND CHILL INDEX IN FAHRENHEIT
N/A    - NOT AVAILABLE
AFB    - AIR FORCE BASE
         DAVIS-MONTHAN IS DAVIS-MONTHAN AIR FORCE BASE
CYN    - CANYON
MTNS   - MOUNTAINS
NCA    - NATIONAL CONSERVATION AREA
NR     - NEAR
VLY    - VALLEY
CONTL  - CONTINENTAL
PIMA CO DEQ - PIMA COUNTY DEPT OF ENVIRONMENTAL QUALITY



USA.gov is the U.S. government's official web portal to all federal, state and local government web resources and services.